User: anonymous   Login
Location: Unspecified
(0.0000°N, 0.0000°E)
Time: 06:02:07
(UTC+00:00)
Language:

NUDT-PHONESAT - Orbit

View from above orbital plane
View from above orbital plane
View from above satellite
View from above satellite

Ground track
Ground track

The orbit data is extracted from the following two-line orbital elements,

1 40900U 15049B   23088.02519964  .12158542  25015-5  19349-2 0  9993
2 40900  97.3398 118.0728 0008674 252.6137 167.9130 16.33727072418695
Epoch (UTC): 29 March 2023 00:36:17
Eccentricity: 0.0008674
inclination: 97.3398°
perigee height: 177 km
apogee height: 188 km
right ascension of ascending node: 118.0728°
argument of perigee: 252.6137°
revolutions per day: 16.33727072
mean anomaly at epoch: 167.9130°
orbit number at epoch: 41869

The dashed part of the orbit path shows where the satellite is in the earth's shadow,  

DLR